Showing default

KUIPER-00158, 65776

Orbit data source: Space-Track

KUIPER-00158, 65776 is a payload satellite owned by Kuiper Systems (US) in LEO that was launched on Thu, 25 Sep 2025 UTC via an ATLAS V 551 launch vehicle from the Air Force Eastern Test Range (AFETR). Payload-class satellites include a variety of spacecraft equipped with specific instruments for various scientific and technological missions. These include communications satellites like Starlink; space stations such as the ISS; scientific satellites like the Hubble; Earth observation satellites from companies like Planet Labs, Umbra, and HawkEye 360; GPS; miniature CubeSats for education and research; and military/defense satellites.

Loading next visibility...
Identifier
65776, 2025-217Q
Orbit
LEO
Country
Flag of USUS
Related business
Manufacturer
Kuiper Systems
Mission
Non-operational Commercial Communications
Bus & Motor
KUIPER, Unknown motor
Mass
~490 kg wet, ~490 kg dry
Launch date (UTC)
2025-09-25 (9 months ago)
Launch vehicle
ATLAS V 551
Launch site
Air Force Eastern Test Range (AFETR)
Object type
Payload
Rocket body
Debris
Shape & HBR
Box + 2 Pan, 3.4 m
Radar Cross Section
2.326 m², Large (>1 m²)

Expand to show TLE details & history
Last TLE update: 11 hours ago

TLE from 11 hours ago
0 KUIPER-00158
1 65776U 25217Q   26171.37312662  .00003157  00000-0  42743-3 0  9994
2 65776  51.8966 310.5689 0000959  77.8208 282.2862 14.81456613 40064
Epoch: 2026-06-20T08:57Z
TLE epoch observation values (Epoch: 2026-06-20T08:57:18.139Z)
Latitude
-0.00007°
Longitude
-92.34542°
Altitude
625.334 km
Speed
7.547 km/s
True Right ascension
20h 42m 16s
True Declination
0° 00' 00"
Sunlit
Object was in full shadow at epoch
Visualization orbit readout
Latitude
Unknown
Longitude
Unknown
Altitude
Unknown
Speed
Unknown
Apparent Right ascension
Unknown
Apparent Declination
Unknown
Sunlit
N/A
Visualization observer readout
Local Sidereal Time
07:14:21
Azimuth
Unknown
Elevation
Unknown
Doppler factor
Unknown
Orbital elements
Apogee altitude
625.854 km
Perigee altitude
624.51 km
Semi-major axis
7,003.319 km
Eccentricity
0.0001
Inclination
51.8966°
RAAN
310.5689°
Arg. of periapsis
77.8208°
True anomaly
282.27546°
Mean anomaly
282.2862°
Eccentric anomaly
282.28083°
Mean motion
3.70329 °/min
Orbital period
97.21 mins
BSTAR
0.00042743
Loading maneuver chart data...
Computing Atmospheric mass density...
Loading historical data...
Loading historical data...
Loading historical data...
Loading historical data...
Loading historical data...
Loading historical data...
Loading historical data...

Documentation

Showing up to 5 results
|